Вернуться в каталог

NAHUEL I2

ANIK C2

АктивенСвязьGEO
NORAD 14133·PAYLOAD·🇦🇷 Argentina

Запущен Jun 18, 1983 с Cape Canaveral Space Force Station

Loading…

TLE

СвежийSource: Space-Track

Эпоха: Sep 14, 2026, 17:04 UTC

1 14133U 83059B   26257.71134800 -.00000024  00000-0  00000-0 0  9990
2 14133  12.8213 335.6219 0035812 125.9485 234.3995  0.99120140 47038

Отслеживайте NAHUEL I2 в реальном времени с AllMySat

Download on the App Store